SCP
0 0 0 0 0 0 0 -0 -0 0 1 1 2 3 3 3 3 3 5 4 6 4 6 6 4 4 4 4 2 1 1 1 1 1 0 0 0 0 0 0 0 0 0
0 0 0 0 0 0 0 -0 -0 -0 0 1 1 2 2 3 0 0 1 1 1 2 2 4 4 3 2 2 2 2 1 1 1 1 0 0 0 0 0 0 0 0 0
0 0 0 0 0 0 0 0 -0 -0 -0 1 1 1 0 1 0 0 0 0 0 0 0 3 2 2 2 3 2 2 2 1 1 0 0 0 0 0 0 0 0 0 0
0 0 0 0 0 0 0 0 -0 -0 -0 -0 0 0 0 0 0 0 0 0 0 0 0 0 0 1 2 2 1 1 1 0 0 0 0 0 0 0 0 0 0 0 0
0 0 0 0 -0 0 0 0 -0 -0 -0 -1 0 0 0 0 0 0 0 0 0 0 -0 -0 0 1 1 1 1 0 0 0 0 0 0 0 0 0 0 0 0 0 0
0 0 0 0 0 0 0 0 -0 -0 -0 -1 0 0 0 0 0 0 0 -0 -0 -1 -1 0 0 0 0 0 0 0 0 0 0 0 0 0 0 0 0 0 0 0 0
0 0 0 0 0 0 -0 0 0 -0 -0 -0 0 0 0 0 0 0 0 0 0 -0 0 0 0 0 0 0 0 0 0 0 0 0 0 0 0 0 0 0 0 0 0
0 0 0 0 0 -0 -0 0 0 -0 -0 0 0 0 0 0 0 -0 -0 -0 -0 0 0 0 0 0 0 0 0 0 0 0 0 0 0 0 0 0 0 0 0 0 0
0 0 0 0 0 0 -0 0 0 0 -0 0 0 0 0 0 -0 -0 -0 -0 0 0 0 0 0 0 0 0 0 0 0 0 0 0 0 0 0 -0 0 0 0 0 0
0 0 0 0 0 0 -0 -0 0 -0 -0 0 -0 0 0 -0 -0 -0 -0 0 0 0 0 0 0 0 0 0 0 0 0 0 0 0 0 0 -0 -0 0 0 0 0 0
0 0 0 0 -0 0 0 0 0 -0 -0 0 0 0 -0 -0 0 0 0 0 0 0 0 0 0 0 0 0 0 0 0 0 0 0 0 0 0 0 0 0 0 0 0
0 0 0 0 0 0 0 0 0 -0 -0 0 0 -0 0 0 0 0 0 0 0 0 0 0 0 0 0 0 0 0 0 0 0 0 0 0 0 0 0 0 0 0 0
0 0 0 0 0 0 0 0 0 0 -0 0 0 0 0 0 0 0 0 0 0 0 0 0 0 0 0 0 0 0 0 0 0 0 0 0 0 0 0 0 0 0 0
0 0 0 0 -0 0 0 0 0 0 -0 0 0 0 0 0 0 0 0 0 0 0 0 0 0 0 0 0 0 0 0 0 0 0 0 0 0 0 0 0 0 0 0
0 0 0 0 0 0 0 0 0 0 0 0 0 0 0 0 0 0 0 0 0 0 0 0 0 0 0 0 0 0 0 0 0 -0 -0 -0 0 0 0 0 0 0 0
0 0 0 0 -0 0 0 0 0 0 0 0 0 0 0 0 0 0 0 0 0 0 0 0 0 0 0 0 0 0 0 0 0 0 0 -0 0 0 0 0 0 0 0
0 0 0 0 0 0 0 0 0 0 0 0 0 0 0 0 0 0 0 0 0 0 0 0 0 0 0 0 0 0 0 0 0 0 0 0 0 0 0 0 0 0 0
0 0 0 0 0 0 0 0 0 0 0 0 0 0 0 0 0 0 0 0 0 0 0 0 0 0 0 0 0 0 0 0 -0 -0 0 0 0 0 0 0 0 0 0
0 0 0 0 0 0 0 0 0 0 0 0 0 0 0 0 0 0 0 0 0 0 0 0 0 0 0 0 0 0 0 0 0 -0 0 0 0 0 0 0 0 0 0
0 0 0 0 0 -0 0 -0 0 0 0 0 0 0 0 0 0 0 0 0 0 0 0 0 0 0 0 0 0 0 0 0 0 0 0 0 0 0 0 0 0 0 0
0 0 0 0 0 0 0 0 0 0 0 0 0 0 0 0 0 0 0 0 0 0 0 0 0 0 0 0 0 0 0 0 0 0 0 0 0 0 0 0 0 0 0
0 0 0 0 0 0 0 0 0 0 -0 0 0 0 0 0 0 0 0 0 0 0 0 0 0 0 0 0 0 0 0 0 0 0 0 0 0 0 0 0 0 0 0
0 0 0 0 0 0 0 0 0 0 0 0 0 0 0 0 0 0 0 0 0 0 0 0 0 0 0 0 0 0 0 0 0 0 0 0 0 0 0 0 0 0 0
0 0 0 0 0 0 0 0 0 -0 0 0 0 0 0 0 0 0 0 0 0 0 0 0 0 0 0 0 0 0 0 0 0 0 0 0 0 0 0 0 0 0 0
0 0 0 0 0 0 0 0 0 0 0 0 0 -0 0 0 0 0 0 0 0 0 0 0 0 0 0 0 0 0 0 0 0 0 0 0 0 0 0 0 0 0 0
0 0 0 0 0 0 -0 -0 0 0 0 0 0 0 0 0 0 0 -0 0 0 0 0 0 0 0 0 0 0 0 0 0 0 0 0 0 0 0 0 0 0 0 0
Wind_Speed_500mb
53 58 58 62 64 72 78 86 85 80 81 105 110 109 107 97 110 114 110 106 107 106 111 107 95 85 79 63 60 58 51 56 54 47 36 26 26 28 36 38 33 34 30
46 56 66 59 60 69 73 80 89 93 87 91 108 104 100 98 108 97 96 98 91 94 124 97 92 69 70 69 56 46 49 53 45 41 28 25 26 32 31 29 28 30 36
76 67 56 52 68 67 79 79 88 89 81 83 95 97 90 98 101 98 93 60 72 59 66 63 66 72 64 63 57 56 45 39 36 33 35 32 27 24 29 33 31 27 31
76 73 78 74 60 54 59 73 79 81 86 79 85 87 86 85 64 62 73 94 77 63 55 22 52 68 57 52 50 47 42 35 31 29 31 27 24 21 26 29 30 32 32
79 89 85 95 92 74 56 55 75 78 82 83 73 80 81 64 53 43 40 55 58 53 64 66 73 61 44 48 43 41 41 39 42 39 33 23 11 10 9 18 23 25 25
85 89 91 101 91 80 74 50 67 67 76 68 48 68 68 56 49 27 45 66 58 59 68 66 60 53 45 40 40 38 37 33 34 36 34 37 38 34 28 24 31 31 27
83 88 90 94 101 94 85 57 62 58 64 51 45 53 61 63 43 30 37 54 65 63 68 65 53 45 44 44 40 33 31 29 26 23 24 22 19 17 21 26 30 29 33
84 80 73 72 81 88 85 69 61 60 61 55 46 44 64 77 60 71 65 69 61 64 64 67 62 54 44 38 32 26 25 23 26 25 24 21 25 27 24 26 30 30 31
75 75 75 69 67 60 61 70 65 59 57 62 49 65 60 84 99 82 95 77 68 72 76 71 54 49 45 36 30 26 14 8 21 28 28 30 32 26 22 27 32 36 38
68 69 72 70 59 55 54 60 59 51 54 56 54 34 55 111 112 82 82 81 80 72 64 55 54 49 45 36 26 22 7 5 7 10 29 37 35 28 27 30 31 36 32
66 64 61 63 67 45 50 55 61 54 51 49 42 48 70 105 89 91 97 91 81 77 72 72 61 52 43 33 27 11 6 13 18 21 23 27 26 23 21 20 24 25 20
60 61 54 55 52 47 34 47 49 47 50 43 43 46 25 73 91 98 96 91 85 78 75 66 62 48 39 33 25 14 15 20 27 29 30 25 22 13 12 12 12 10 17
67 63 57 47 45 44 44 39 32 33 38 36 42 49 11 44 96 94 88 83 78 76 69 56 45 42 40 31 23 18 23 28 36 38 35 23 14 12 14 14 13 16 20
70 60 52 48 38 34 46 27 35 27 23 33 33 36 39 27 74 77 77 77 75 66 57 51 44 43 42 36 26 24 26 35 33 30 20 11 13 15 15 17 17 19 23
68 45 35 29 32 27 33 34 42 30 14 28 25 55 54 23 59 61 77 74 69 64 63 61 59 53 45 33 28 25 25 20 21 24 19 11 20 22 19 18 21 24 29
53 39 24 13 14 17 30 29 48 37 27 24 27 27 50 25 36 78 76 66 58 51 53 54 57 53 42 35 33 30 19 19 26 29 28 19 26 31 19 24 32 34 32
46 34 23 15 7 11 12 24 37 45 33 17 32 27 35 45 25 28 57 62 54 52 48 60 58 56 50 43 36 24 22 26 34 34 34 38 31 32 25 24 36 34 33
45 36 30 22 13 13 6 11 24 27 28 19 16 33 34 44 42 42 36 67 59 65 50 58 57 50 41 36 36 38 30 36 37 36 40 36 35 30 31 31 33 40 37
43 41 30 22 20 12 7 3 19 32 20 8 12 20 26 25 41 48 49 61 77 65 54 60 47 37 40 45 48 45 43 45 43 40 41 48 41 34 38 37 37 40 34
35 35 30 24 15 14 1 15 7 23 42 25 15 25 24 23 38 33 69 71 63 78 71 61 57 49 46 49 52 53 50 51 49 44 43 41 33 35 37 36 40 41 36
30 33 30 28 21 16 10 4 18 13 18 38 38 18 31 31 27 36 46 45 72 69 73 74 70 64 58 57 60 60 52 52 52 47 45 48 47 51 51 46 43 39 39
27 32 26 21 20 18 15 12 6 9 17 30 46 57 39 27 32 25 30 37 54 58 49 48 50 54 57 62 63 60 46 46 51 51 53 54 51 50 46 44 42 41 39
23 25 23 21 21 21 14 9 10 14 19 31 35 30 60 68 38 32 27 32 33 54 62 63 63 61 62 60 58 57 58 56 63 58 53 57 53 53 52 45 43 40 44
37 27 24 19 20 17 22 30 21 15 14 17 35 42 34 67 83 74 54 47 45 49 54 56 61 69 73 78 88 99 107 81 62 55 50 58 54 53 49 51 45 41 37
55 44 34 26 22 25 20 15 12 25 24 18 17 34 34 44 74 73 67 60 53 52 52 52 57 67 73 67 60 64 58 59 58 56 53 50 50 51 50 57 50 56 43
70 61 52 43 36 28 24 22 14 13 22 23 33 26 24 37 44 47 58 55 55 66 74 63 56 53 53 51 44 46 53 50 59 62 56 54 57 56 55 54 59 54 48
Wind_Direction_500mb
282 282 282 279 278 293 288 289 285 290 278 266 262 259 252 240 237 239 243 245 239 237 233 227 221 224 225 222 226 243 234 244 254 255 263 268 279 286 297 296 293 300 316
306 292 279 275 281 287 285 288 290 286 284 268 263 259 254 246 242 229 262 255 242 244 229 227 222 211 211 213 218 230 232 242 236 251 255 263 281 288 300 294 299 305 303
290 290 293 281 276 280 285 287 296 295 285 270 264 254 254 248 248 249 255 241 254 265 284 211 217 208 206 210 213 217 223 226 233 236 255 269 274 310 314 291 295 303 313
285 283 284 281 278 282 284 288 293 298 290 272 265 253 250 245 236 229 244 264 266 286 266 224 229 231 210 211 210 212 221 214 215 223 240 259 277 295 311 303 299 299 300
293 284 279 275 274 278 287 293 290 303 300 298 267 253 244 233 228 229 235 227 211 181 205 221 222 226 215 213 213 196 195 208 226 235 239 247 246 273 290 324 307 304 304
288 285 282 281 279 271 280 297 300 301 296 303 271 243 237 217 227 206 152 164 167 190 211 215 212 208 203 193 180 197 211 224 233 245 249 252 261 267 280 301 309 301 291
286 285 284 280 273 273 275 291 298 298 301 294 231 222 220 205 216 208 191 203 184 206 217 206 190 177 176 179 189 205 221 228 235 247 252 258 271 276 282 297 306 290 288
288 285 279 280 279 273 271 274 289 295 298 295 247 247 228 236 218 180 182 199 203 205 201 192 177 175 180 190 192 198 213 222 236 242 257 266 274 281 277 286 293 291 287
287 284 284 282 280 276 271 266 285 289 289 292 280 243 266 234 202 189 192 199 203 190 179 179 178 172 175 176 191 190 200 220 243 247 248 258 268 278 284 282 285 290 284
298 286 279 277 278 272 280 263 268 281 293 293 279 259 247 213 199 184 185 187 178 173 173 178 170 169 176 182 191 191 194 280 293 265 255 256 265 270 279 281 282 277 271
310 300 284 272 270 272 260 254 251 274 290 291 275 231 282 201 187 180 185 186 180 171 175 178 183 182 184 188 188 202 256 301 311 306 295 278 273 280 299 295 290 273 230
313 304 294 280 269 259 271 263 247 266 281 289 262 247 324 172 178 179 184 185 186 186 184 185 183 185 190 192 195 228 277 303 308 306 307 302 290 304 284 281 305 217 209
313 304 298 294 279 260 248 244 241 237 269 281 242 232 285 190 176 184 188 187 188 188 189 183 182 179 189 195 210 252 282 302 301 304 310 309 294 314 280 261 281 224 227
318 306 296 288 286 275 234 235 232 223 262 271 246 242 239 185 181 181 184 185 187 187 181 180 186 190 202 207 228 262 288 301 306 314 309 317 292 284 294 267 242 229 239
339 317 297 285 279 282 219 227 229 205 252 264 257 223 242 254 191 183 171 175 180 183 185 185 185 197 208 226 258 277 297 297 320 333 329 308 307 298 272 247 231 234 247
359 2 349 323 295 277 225 216 219 210 219 239 250 241 229 222 204 193 196 180 177 186 196 199 203 210 227 247 265 281 275 311 320 312 300 282 314 309 270 243 242 246 247
4 5 7 345 317 299 256 216 218 218 239 246 231 227 238 223 235 192 196 194 189 212 237 236 232 235 243 253 261 250 278 287 293 300 295 284 273 314 271 257 246 248 247
3 9 7 5 22 353 158 184 193 211 243 265 270 223 225 214 226 233 213 192 214 241 230 244 237 238 242 239 235 239 267 286 278 281 287 274 266 291 282 260 252 250 240
1 10 5 9 14 18 245 38 164 192 187 134 196 199 209 165 204 209 207 203 211 210 227 236 230 234 235 236 241 249 279 289 284 277 280 263 264 281 289 254 255 252 247
358 6 15 15 358 6 94 231 191 183 205 207 138 156 182 199 207 191 212 218 221 229 233 233 230 238 241 239 252 266 283 290 283 280 273 264 260 274 287 259 255 252 252
3 350 353 354 357 352 317 247 219 211 205 230 231 206 177 195 206 230 220 213 217 221 229 237 234 236 241 250 256 265 276 285 280 276 270 258 269 278 278 283 262 248 251
2 2 357 0 2 357 359 343 327 262 247 242 245 235 228 181 192 207 239 226 216 210 206 214 227 236 242 248 256 269 274 283 288 271 269 249 258 271 284 275 253 243 242
13 2 0 8 343 351 349 327 318 288 265 249 245 240 229 231 214 193 211 230 239 230 235 229 230 233 235 234 242 249 259 277 277 268 258 253 259 268 281 265 242 232 234
25 16 20 7 340 350 334 322 322 315 291 276 241 232 243 225 221 225 229 232 240 248 252 255 257 258 258 259 262 266 269 266 258 259 256 256 259 271 267 256 239 227 223
34 32 26 16 10 13 9 25 349 301 281 280 260 242 238 220 215 227 228 247 230 243 241 252 253 254 258 256 255 255 257 235 250 253 248 253 261 271 259 251 225 209 229
35 36 34 30 24 17 7 358 337 341 27 241 265 262 246 229 230 236 232 244 246 248 252 246 249 252 252 248 252 252 244 245 246 240 246 256 266 262 253 247 219 226 209
Wind_Speed_850mb
53 58 58 62 64 72 78 86 85 80 81 105 110 109 107 97 110 114 110 106 107 106 111 107 95 85 79 63 60 58 51 56 54 47 36 26 26 28 36 38 33 34 30
46 56 66 59 60 69 73 80 89 93 87 91 108 104 100 98 108 97 96 98 91 94 124 97 92 69 70 69 56 46 49 53 45 41 28 25 26 32 31 29 28 30 36
76 67 56 52 68 67 79 79 88 89 81 83 95 97 90 98 101 98 93 60 72 59 66 63 66 72 64 63 57 56 45 39 36 33 35 32 27 24 29 33 31 27 31
76 73 78 74 60 54 59 73 79 81 86 79 85 87 86 85 64 62 73 94 77 63 55 22 52 68 57 52 50 47 42 35 31 29 31 27 24 21 26 29 30 32 32
79 89 85 95 92 74 56 55 75 78 82 83 73 80 81 64 53 43 40 55 58 53 64 66 73 61 44 48 43 41 41 39 42 39 33 23 11 10 9 18 23 25 25
85 89 91 101 91 80 74 50 67 67 76 68 48 68 68 56 49 27 45 66 58 59 68 66 60 53 45 40 40 38 37 33 34 36 34 37 38 34 28 24 31 31 27
83 88 90 94 101 94 85 57 62 58 64 51 45 53 61 63 43 30 37 54 65 63 68 65 53 45 44 44 40 33 31 29 26 23 24 22 19 17 21 26 30 29 33
84 80 73 72 81 88 85 69 61 60 61 55 46 44 64 77 60 71 65 69 61 64 64 67 62 54 44 38 32 26 25 23 26 25 24 21 25 27 24 26 30 30 31
75 75 75 69 67 60 61 70 65 59 57 62 49 65 60 84 99 82 95 77 68 72 76 71 54 49 45 36 30 26 14 8 21 28 28 30 32 26 22 27 32 36 38
68 69 72 70 59 55 54 60 59 51 54 56 54 34 55 111 112 82 82 81 80 72 64 55 54 49 45 36 26 22 7 5 7 10 29 37 35 28 27 30 31 36 32
66 64 61 63 67 45 50 55 61 54 51 49 42 48 70 105 89 91 97 91 81 77 72 72 61 52 43 33 27 11 6 13 18 21 23 27 26 23 21 20 24 25 20
60 61 54 55 52 47 34 47 49 47 50 43 43 46 25 73 91 98 96 91 85 78 75 66 62 48 39 33 25 14 15 20 27 29 30 25 22 13 12 12 12 10 17
67 63 57 47 45 44 44 39 32 33 38 36 42 49 11 44 96 94 88 83 78 76 69 56 45 42 40 31 23 18 23 28 36 38 35 23 14 12 14 14 13 16 20
70 60 52 48 38 34 46 27 35 27 23 33 33 36 39 27 74 77 77 77 75 66 57 51 44 43 42 36 26 24 26 35 33 30 20 11 13 15 15 17 17 19 23
68 45 35 29 32 27 33 34 42 30 14 28 25 55 54 23 59 61 77 74 69 64 63 61 59 53 45 33 28 25 25 20 21 24 19 11 20 22 19 18 21 24 29
53 39 24 13 14 17 30 29 48 37 27 24 27 27 50 25 36 78 76 66 58 51 53 54 57 53 42 35 33 30 19 19 26 29 28 19 26 31 19 24 32 34 32
46 34 23 15 7 11 12 24 37 45 33 17 32 27 35 45 25 28 57 62 54 52 48 60 58 56 50 43 36 24 22 26 34 34 34 38 31 32 25 24 36 34 33
45 36 30 22 13 13 6 11 24 27 28 19 16 33 34 44 42 42 36 67 59 65 50 58 57 50 41 36 36 38 30 36 37 36 40 36 35 30 31 31 33 40 37
43 41 30 22 20 12 7 3 19 32 20 8 12 20 26 25 41 48 49 61 77 65 54 60 47 37 40 45 48 45 43 45 43 40 41 48 41 34 38 37 37 40 34
35 35 30 24 15 14 1 15 7 23 42 25 15 25 24 23 38 33 69 71 63 78 71 61 57 49 46 49 52 53 50 51 49 44 43 41 33 35 37 36 40 41 36
30 33 30 28 21 16 10 4 18 13 18 38 38 18 31 31 27 36 46 45 72 69 73 74 70 64 58 57 60 60 52 52 52 47 45 48 47 51 51 46 43 39 39
27 32 26 21 20 18 15 12 6 9 17 30 46 57 39 27 32 25 30 37 54 58 49 48 50 54 57 62 63 60 46 46 51 51 53 54 51 50 46 44 42 41 39
23 25 23 21 21 21 14 9 10 14 19 31 35 30 60 68 38 32 27 32 33 54 62 63 63 61 62 60 58 57 58 56 63 58 53 57 53 53 52 45 43 40 44
37 27 24 19 20 17 22 30 21 15 14 17 35 42 34 67 83 74 54 47 45 49 54 56 61 69 73 78 88 99 107 81 62 55 50 58 54 53 49 51 45 41 37
55 44 34 26 22 25 20 15 12 25 24 18 17 34 34 44 74 73 67 60 53 52 52 52 57 67 73 67 60 64 58 59 58 56 53 50 50 51 50 57 50 56 43
70 61 52 43 36 28 24 22 14 13 22 23 33 26 24 37 44 47 58 55 55 66 74 63 56 53 53 51 44 46 53 50 59 62 56 54 57 56 55 54 59 54 48
Wind_Direction_850mb
282 282 282 279 278 293 288 289 285 290 278 266 262 259 252 240 237 239 243 245 239 237 233 227 221 224 225 222 226 243 234 244 254 255 263 268 279 286 297 296 293 300 316
306 292 279 275 281 287 285 288 290 286 284 268 263 259 254 246 242 229 262 255 242 244 229 227 222 211 211 213 218 230 232 242 236 251 255 263 281 288 300 294 299 305 303
290 290 293 281 276 280 285 287 296 295 285 270 264 254 254 248 248 249 255 241 254 265 284 211 217 208 206 210 213 217 223 226 233 236 255 269 274 310 314 291 295 303 313
285 283 284 281 278 282 284 288 293 298 290 272 265 253 250 245 236 229 244 264 266 286 266 224 229 231 210 211 210 212 221 214 215 223 240 259 277 295 311 303 299 299 300
293 284 279 275 274 278 287 293 290 303 300 298 267 253 244 233 228 229 235 227 211 181 205 221 222 226 215 213 213 196 195 208 226 235 239 247 246 273 290 324 307 304 304
288 285 282 281 279 271 280 297 300 301 296 303 271 243 237 217 227 206 152 164 167 190 211 215 212 208 203 193 180 197 211 224 233 245 249 252 261 267 280 301 309 301 291
286 285 284 280 273 273 275 291 298 298 301 294 231 222 220 205 216 208 191 203 184 206 217 206 190 177 176 179 189 205 221 228 235 247 252 258 271 276 282 297 306 290 288
288 285 279 280 279 273 271 274 289 295 298 295 247 247 228 236 218 180 182 199 203 205 201 192 177 175 180 190 192 198 213 222 236 242 257 266 274 281 277 286 293 291 287
287 284 284 282 280 276 271 266 285 289 289 292 280 243 266 234 202 189 192 199 203 190 179 179 178 172 175 176 191 190 200 220 243 247 248 258 268 278 284 282 285 290 284
298 286 279 277 278 272 280 263 268 281 293 293 279 259 247 213 199 184 185 187 178 173 173 178 170 169 176 182 191 191 194 280 293 265 255 256 265 270 279 281 282 277 271
310 300 284 272 270 272 260 254 251 274 290 291 275 231 282 201 187 180 185 186 180 171 175 178 183 182 184 188 188 202 256 301 311 306 295 278 273 280 299 295 290 273 230
313 304 294 280 269 259 271 263 247 266 281 289 262 247 324 172 178 179 184 185 186 186 184 185 183 185 190 192 195 228 277 303 308 306 307 302 290 304 284 281 305 217 209
313 304 298 294 279 260 248 244 241 237 269 281 242 232 285 190 176 184 188 187 188 188 189 183 182 179 189 195 210 252 282 302 301 304 310 309 294 314 280 261 281 224 227
318 306 296 288 286 275 234 235 232 223 262 271 246 242 239 185 181 181 184 185 187 187 181 180 186 190 202 207 228 262 288 301 306 314 309 317 292 284 294 267 242 229 239
339 317 297 285 279 282 219 227 229 205 252 264 257 223 242 254 191 183 171 175 180 183 185 185 185 197 208 226 258 277 297 297 320 333 329 308 307 298 272 247 231 234 247
359 2 349 323 295 277 225 216 219 210 219 239 250 241 229 222 204 193 196 180 177 186 196 199 203 210 227 247 265 281 275 311 320 312 300 282 314 309 270 243 242 246 247
4 5 7 345 317 299 256 216 218 218 239 246 231 227 238 223 235 192 196 194 189 212 237 236 232 235 243 253 261 250 278 287 293 300 295 284 273 314 271 257 246 248 247
3 9 7 5 22 353 158 184 193 211 243 265 270 223 225 214 226 233 213 192 214 241 230 244 237 238 242 239 235 239 267 286 278 281 287 274 266 291 282 260 252 250 240
1 10 5 9 14 18 245 38 164 192 187 134 196 199 209 165 204 209 207 203 211 210 227 236 230 234 235 236 241 249 279 289 284 277 280 263 264 281 289 254 255 252 247
358 6 15 15 358 6 94 231 191 183 205 207 138 156 182 199 207 191 212 218 221 229 233 233 230 238 241 239 252 266 283 290 283 280 273 264 260 274 287 259 255 252 252
3 350 353 354 357 352 317 247 219 211 205 230 231 206 177 195 206 230 220 213 217 221 229 237 234 236 241 250 256 265 276 285 280 276 270 258 269 278 278 283 262 248 251
2 2 357 0 2 357 359 343 327 262 247 242 245 235 228 181 192 207 239 226 216 210 206 214 227 236 242 248 256 269 274 283 288 271 269 249 258 271 284 275 253 243 242
13 2 0 8 343 351 349 327 318 288 265 249 245 240 229 231 214 193 211 230 239 230 235 229 230 233 235 234 242 249 259 277 277 268 258 253 259 268 281 265 242 232 234
25 16 20 7 340 350 334 322 322 315 291 276 241 232 243 225 221 225 229 232 240 248 252 255 257 258 258 259 262 266 269 266 258 259 256 256 259 271 267 256 239 227 223
34 32 26 16 10 13 9 25 349 301 281 280 260 242 238 220 215 227 228 247 230 243 241 252 253 254 258 256 255 255 257 235 250 253 248 253 261 271 259 251 225 209 229
35 36 34 30 24 17 7 358 337 341 27 241 265 262 246 229 230 236 232 244 246 248 252 246 249 252 252 248 252 252 244 245 246 240 246 256 266 262 253 247 219 226 209